Weather History for Drummond Island, MI

Change the Weather History Date:

Thursday, December 13, 2012

  Actual Average (KCIU) Record (KCIU)
Temperature  
Mean Temperature 38 °F -  
Max Temperature 43 °F 31 °F 42 °F (2006)
Min Temperature 31 °F 14 °F -12 °F (1989)
Degree Days  
Heating Degree Days 28    
Moisture  
Dew Point 30 °F    
Average Humidity 72    
Maximum Humidity 85    
Minimum Humidity 56    
Precipitation  
Precipitation 0.00 in - - ()
Sea Level Pressure  
Sea Level Pressure 30.07 in    
Wind  
Wind Speed 11 mph (SSW)    
Max Wind Speed 14 mph    
Max Gust Speed 23 mph    
Visibility 10 miles    
Events      
Averages and records for this station are not official NWS values.
T = Trace of Precipitation, MM = Missing Value Source: NWS Daily Summary

Daily Weather History Graph

Daily Weather History Graph

Search for Another Location

Airport:

Trip Planner

Search our weather history database for the weather conditions in past years. The results will help you decide how hot, cold, wet, or windy it might be!

Date:

Astronomy

Dec. 13, 2012 Rise Set
Actual Time 8:08 AM EST 4:49 PM EST
Civil Twilight 7:34 AM EST 5:24 PM EST
Nautical Twilight 6:56 AM EST 6:02 PM EST
Astronomical Twilight 6:20 AM EST 6:38 PM EST
Moon 8:15 AM EST (12/13) 5:32 PM EST (12/13)
Length of Visible Light 9h 50m
Length of Day
8h 40m
New Moon, 0% of the Moon is Illuminated
Dec 13
New Moon
Dec 20
First Quarter
Dec 28
Full
Jan 4
Last Quarter
Jan 11
New

Hourly Weather History & Observations

Time (EST) Temp. Windchill Dew Point Humidity Pressure Visibility Wind Dir Wind Speed Gust Speed Precip Events Conditions
12:15 AM 37.4 °F 29.3 °F 30.0 °F 75% 30.15 in 10.0 mi SSW 12.7 mph 21.9 mph N/A   Overcast
12:35 AM 37.8 °F 29.8 °F 29.7 °F 73% 30.15 in 10.0 mi SSW 12.7 mph 19.6 mph N/A   Overcast
12:54 AM 37.8 °F 30.7 °F 29.3 °F 72% 30.16 in 10.0 mi SSW 10.4 mph - N/A   Overcast
1:15 AM 37.8 °F 29.8 °F 29.5 °F 72% 30.16 in 10.0 mi SSW 12.7 mph - N/A   Overcast
1:35 AM 37.6 °F 29.1 °F 29.1 °F 72% 30.16 in 10.0 mi SSW 13.8 mph - N/A   Overcast
1:54 AM 37.6 °F 29.6 °F 28.6 °F 70% 30.15 in 10.0 mi SSW 12.7 mph 18.4 mph N/A   Overcast
2:15 AM 37.6 °F 30.5 °F 28.2 °F 69% 30.15 in 10.0 mi SSW 10.4 mph - N/A   Overcast
2:34 AM 37.6 °F 29.1 °F 28.2 °F 69% 30.15 in 10.0 mi SSW 13.8 mph 19.6 mph N/A   Overcast
2:55 AM 37.6 °F 29.6 °F 28.4 °F 69% 30.15 in 10.0 mi SSW 12.7 mph 17.3 mph N/A   Overcast
3:14 AM 37.8 °F 29.8 °F 27.9 °F 67% 30.15 in 10.0 mi SSW 12.7 mph 21.9 mph N/A   Overcast
3:35 AM 37.9 °F 30.0 °F 27.5 °F 66% 30.15 in 10.0 mi South 12.7 mph - N/A   Overcast
3:54 AM 37.9 °F 29.6 °F 27.1 °F 65% 30.14 in 10.0 mi SSW 13.8 mph 17.3 mph N/A   Overcast
4:15 AM 37.9 °F 30.0 °F 27.3 °F 66% 30.13 in 10.0 mi SSW 12.7 mph 20.7 mph N/A   Overcast
4:35 AM 37.9 °F 30.0 °F 27.3 °F 66% 30.12 in 10.0 mi SSW 12.7 mph 18.4 mph N/A   Overcast
4:54 AM 37.8 °F 29.4 °F 27.3 °F 66% 30.12 in 10.0 mi SSW 13.8 mph 19.6 mph N/A   Overcast
5:15 AM 37.6 °F 30.0 °F 27.5 °F 67% 30.12 in 10.0 mi SSW 11.5 mph - N/A   Scattered Clouds
5:35 AM 37.8 °F 29.8 °F 28.0 °F 68% 30.11 in 10.0 mi SSW 12.7 mph 18.4 mph N/A   Scattered Clouds
5:54 AM 37.6 °F 30.0 °F 28.4 °F 69% 30.10 in 10.0 mi SSW 11.5 mph 19.6 mph N/A   Mostly Cloudy
6:15 AM 37.4 °F 29.8 °F 29.1 °F 72% 30.10 in 10.0 mi SSW 11.5 mph 17.3 mph N/A   Overcast
6:35 AM 37.4 °F 29.8 °F 29.3 °F 73% 30.10 in 10.0 mi SSW 11.5 mph 17.3 mph N/A   Overcast
6:55 AM 37.4 °F 30.3 °F 29.8 °F 74% 30.10 in 10.0 mi SSW 10.4 mph 17.3 mph N/A   Overcast
7:15 AM 36.5 °F 29.7 °F 29.5 °F 76% 30.10 in 10.0 mi SSW 9.2 mph - N/A   Mostly Cloudy
7:35 AM 36.0 °F 29.0 °F 29.8 °F 78% 30.10 in 10.0 mi SSW 9.2 mph - N/A   Clear
7:55 AM 36.0 °F 28.0 °F 30.2 °F 80% 30.10 in 10.0 mi SSW 11.5 mph - N/A   Clear
8:15 AM 36.0 °F 28.5 °F 30.2 °F 80% 30.10 in 10.0 mi SSW 10.4 mph - N/A   Clear
8:35 AM 36.1 °F 28.2 °F 30.2 °F 79% 30.10 in 10.0 mi SSW 11.5 mph - N/A   Clear
8:55 AM 36.0 °F 28.5 °F 30.2 °F 80% 30.09 in 10.0 mi SSW 10.4 mph - N/A   Scattered Clouds
9:15 AM 36.9 °F 29.1 °F 30.7 °F 79% 30.09 in 10.0 mi SSW 11.5 mph - N/A   Scattered Clouds
9:35 AM 37.4 °F 30.3 °F 31.1 °F 78% 30.08 in 10.0 mi SSW 10.4 mph 17.3 mph N/A   Mostly Cloudy
9:55 AM 37.8 °F 29.4 °F 31.1 °F 77% 30.08 in 10.0 mi SSW 13.8 mph 23.0 mph N/A   Scattered Clouds
10:15 AM 38.8 °F 30.8 °F 31.1 °F 74% 30.08 in 10.0 mi SSW 13.8 mph 23.0 mph N/A   Mostly Cloudy
10:35 AM 39.2 °F 31.6 °F 31.1 °F 73% 30.08 in 10.0 mi SW 12.7 mph 18.4 mph N/A   Overcast
10:54 AM 40.1 °F 33.6 °F 31.3 °F 71% 30.08 in 10.0 mi SSW 10.4 mph 20.7 mph N/A   Scattered Clouds
11:15 AM 40.3 °F 33.4 °F 31.1 °F 70% 30.08 in 10.0 mi SW 11.5 mph 20.7 mph N/A   Clear
11:35 AM 40.6 °F 33.4 °F 30.9 °F 68% 30.07 in 10.0 mi SSW 12.7 mph 21.9 mph N/A   Mostly Cloudy
11:54 AM 41.9 °F 34.6 °F 30.7 °F 65% 30.06 in 10.0 mi SSW 13.8 mph 19.6 mph N/A   Overcast
12:15 PM 41.9 °F 35.0 °F 31.1 °F 66% 30.05 in 10.0 mi SSW 12.7 mph 21.9 mph N/A   Scattered Clouds
12:34 PM 41.5 °F 35.0 °F 30.0 °F 64% 30.04 in 10.0 mi SSW 11.5 mph 20.7 mph N/A   Mostly Cloudy
12:55 PM 41.4 °F 35.2 °F 29.7 °F 63% 30.04 in 10.0 mi SSW 10.4 mph 17.3 mph N/A   Overcast
1:15 PM 41.2 °F 35.5 °F 30.2 °F 65% 30.04 in 10.0 mi South 9.2 mph - N/A   Scattered Clouds
1:34 PM 41.9 °F 36.9 °F 30.9 °F 65% 30.03 in 10.0 mi SSW 8.1 mph - N/A   Clear
1:55 PM 41.9 °F 36.3 °F 31.1 °F 66% 30.03 in 10.0 mi SSW 9.2 mph - N/A   Clear
2:15 PM 41.9 °F 38.2 °F 30.9 °F 65% 30.01 in 10.0 mi SSW 5.8 mph - N/A   Scattered Clouds
2:34 PM 42.1 °F 37.7 °F 31.3 °F 66% 30.00 in 10.0 mi SSW 6.9 mph - N/A   Mostly Cloudy
2:55 PM 43.5 °F 37.9 °F 28.9 °F 56% 30.00 in 10.0 mi SW 10.4 mph 18.4 mph N/A   Scattered Clouds
3:15 PM 41.9 °F 36.3 °F 28.9 °F 60% 29.99 in 10.0 mi SSW 9.2 mph - N/A   Scattered Clouds
3:35 PM 41.0 °F 36.4 °F 31.6 °F 69% 29.99 in 10.0 mi SSW 6.9 mph - N/A   Scattered Clouds
3:55 PM 40.8 °F 37.8 °F 31.5 °F 69% 30.00 in 10.0 mi SSW 4.6 mph - N/A   Mostly Cloudy
4:14 PM 40.1 °F 36.9 °F 31.1 °F 70% 29.99 in 10.0 mi South 4.6 mph - N/A   Scattered Clouds
4:35 PM 38.7 °F 36.3 °F 31.3 °F 75% 29.99 in 10.0 mi South 3.5 mph - N/A   Clear
4:55 PM 37.6 °F 35.1 °F 31.1 °F 77% 29.98 in 10.0 mi South 3.5 mph - N/A   Clear
5:35 PM 35.6 °F 32.8 °F 30.7 °F 82% 29.98 in 10.0 mi SSW 3.5 mph - N/A   Clear
8:15 PM 37.6 °F - 33.4 °F 85% 30.00 in 10.0 mi Calm Calm - N/A   Overcast
8:35 PM 38.7 °F 35.2 °F 33.8 °F 83% 30.01 in 10.0 mi West 4.6 mph - N/A   Overcast
8:55 PM 38.5 °F - 32.5 °F 79% 30.01 in 10.0 mi Calm Calm - N/A   Overcast
9:15 PM 38.3 °F 35.9 °F 32.0 °F 78% 30.01 in 10.0 mi WSW 3.5 mph - N/A   Overcast
9:35 PM 37.4 °F 34.9 °F 31.5 °F 79% 30.01 in 10.0 mi WSW 3.5 mph - N/A   Overcast
9:54 PM 37.4 °F 34.9 °F 30.7 °F 77% 30.01 in 10.0 mi West 3.5 mph - N/A   Mostly Cloudy
10:15 PM 36.0 °F 32.1 °F 30.0 °F 79% 30.01 in 10.0 mi West 4.6 mph - N/A   Scattered Clouds
10:35 PM 34.9 °F 32.0 °F 29.1 °F 79% 30.01 in 10.0 mi West 3.5 mph - N/A   Clear
10:54 PM 34.2 °F 31.2 °F 28.4 °F 79% 30.01 in 10.0 mi West 3.5 mph - N/A   Clear
11:15 PM 33.1 °F 28.7 °F 27.5 °F 80% 30.01 in 10.0 mi WSW 4.6 mph - N/A   Clear
11:35 PM 32.9 °F - 27.5 °F 81% 30.01 in 10.0 mi Calm Calm - N/A   Clear
11:54 PM 31.8 °F - 27.1 °F 83% 30.02 in 10.0 mi Calm Calm - N/A   Scattered Clouds